Satellite: SO-50
Catalog number: 27607
Epoch time:      10327.91373191
Element set:    0326
Inclination:      064.5589 deg
RA of node:       231.3384 deg
Eccentricity:    0.0048528
Arg of perigee:   013.4249 deg
Mean anomaly:     346.8100 deg
Mean motion:   14.71610392 rev/day
Decay rate:       1.74e-06 rev/day^2
Epoch rev:           42588
Checksum:              301

Satellite: CO-55
Catalog number: 27844
Epoch time:      10327.53989407
Element set:     984
Inclination:      098.7094 deg
RA of node:       334.2328 deg
Eccentricity:    0.0010597
Arg of perigee:   072.2690 deg
Mean anomaly:     287.9646 deg
Mean motion:   14.20748882 rev/day
Decay rate:       1.43e-06 rev/day^2
Epoch rev:           38371
Checksum:              350

Satellite: CO-57
Catalog number: 27848
Epoch time:      10327.52248466
Element set:    0934
Inclination:      098.7142 deg
RA of node:       333.3430 deg
Eccentricity:    0.0010501
Arg of perigee:   076.1773 deg
Mean anomaly:     284.0556 deg
Mean motion:   14.20536903 rev/day
Decay rate:       1.08e-06 rev/day^2
Epoch rev:           38366
Checksum:              303

Satellite: AO-51
Catalog number: 28375
Epoch time:      10327.95639905
Element set:    0831
Inclination:      098.0755 deg
RA of node:       312.4781 deg
Eccentricity:    0.0084298
Arg of perigee:   333.3472 deg
Mean anomaly:     026.3398 deg
Mean motion:   14.40711585 rev/day
Decay rate:        6.8e-07 rev/day^2
Epoch rev:           33651
Checksum:              328

Satellite: CP3
Catalog number: 31129
Epoch time:      10327.57515300
Element set:    0731
Inclination:      097.9224 deg
RA of node:       358.4751 deg
Eccentricity:    0.0103465
Arg of perigee:   099.4149 deg
Mean anomaly:     261.8751 deg
Mean motion:   14.52338417 rev/day
Decay rate:        1.8e-07 rev/day^2
Epoch rev:           19099
Checksum:              305

Satellite: CO-65
Catalog number: 32785
Epoch time:      10327.33455683
Element set:    0845
Inclination:      097.8785 deg
RA of node:       029.8998 deg
Eccentricity:    0.0015785
Arg of perigee:   124.4048 deg
Mean anomaly:     235.8670 deg
Mean motion:   14.81770125 rev/day
Decay rate:       2.28e-06 rev/day^2
Epoch rev:           13905
Checksum:              348

Satellite: KKS-1
Catalog number: 33493
Epoch time:      10328.03027986
Element set:      65
Inclination:      098.1027 deg
RA of node:       089.0740 deg
Eccentricity:    0.0019496
Arg of perigee:   347.9806 deg
Mean anomaly:     012.0913 deg
Mean motion:   14.81212096 rev/day
Decay rate:       7.57e-06 rev/day^2
Epoch rev:            9914
Checksum:              306

Satellite: SOHLA-1
Catalog number: 33496
Epoch time:      10327.83333159
Element set:    0263
Inclination:      098.0706 deg
RA of node:       074.9448 deg
Eccentricity:    0.0007570
Arg of perigee:   060.5549 deg
Mean anomaly:     299.6407 deg
Mean motion:   14.69535900 rev/day
Decay rate:       1.33e-06 rev/day^2
Epoch rev:           09832
Checksum:              317

Satellite: TISAT-1
Catalog number: 36799
Epoch time:      10328.33558963
Element set:     340
Inclination:      098.1308 deg
RA of node:       029.3321 deg
Eccentricity:    0.0014772
Arg of perigee:   214.5941 deg
Mean anomaly:     145.4327 deg
Mean motion:   14.80241360 rev/day
Decay rate:       5.38e-06 rev/day^2
Epoch rev:            2000
Checksum:              277

Satellite: STUDSAT
Catalog number: 36801
Epoch time:      10327.90917001
Element set:    0101
Inclination:      098.1333 deg
RA of node:       028.7889 deg
Eccentricity:    0.0013470
Arg of perigee:   205.6161 deg
Mean anomaly:     154.4379 deg
Mean motion:   14.79827585 rev/day
Decay rate:      1.496e-05 rev/day^2
Epoch rev:           01993
Checksum:              304

/EX
SB KEPS @ AMSAT  $ORB10328.W
Orbital Elements  10328.WEATHER

HR AMSAT ORBITAL ELEMENTS FOR WEATHER SATELLITES
FROM WA5QGD FORT WORTH,TX November 24, 2010
BID: ORB10328.W
TO ALL RADIO AMATEURS BT

Satellite: NOAA-10
Catalog number: 16969
Epoch time:      10327.62142431
Element set:    0284
Inclination:      098.6415 deg
RA of node:       354.9771 deg
Eccentricity:    0.0013017
Arg of perigee:   104.5831 deg
Mean anomaly:     255.6808 deg
Mean motion:   14.27435027 rev/day
Decay rate:        1.2e-07 rev/day^2
Epoch rev:           25832
Checksum:              288

Satellite: NOAA-11
Catalog number: 19531
Epoch time:      10327.70087695
Element set:    0294
Inclination:      098.7657 deg
RA of node:       053.9740 deg
Eccentricity:    0.0012212
Arg of perigee:   055.3149 deg
Mean anomaly:     304.9182 deg
Mean motion:   14.14943317 rev/day
Decay rate:       -1.6e-07 rev/day^2
Epoch rev:           14369
Checksum:              302

Satellite: NOAA-12
Catalog number: 21263
Epoch time:      10327.80687379
Element set:    0787
Inclination:      098.7613 deg
RA of node:       340.9197 deg
Eccentricity:    0.0013321
Arg of perigee:   064.7765 deg
Mean anomaly:     295.4788 deg
Mean motion:   14.25669363 rev/day
Decay rate:        9.5e-07 rev/day^2
Epoch rev:           01514
Checksum:              336

Satellite: MET-3/5
Catalog number: 21655
Epoch time:      10327.86661151
Element set:     971
Inclination:      082.5574 deg
RA of node:       195.8194 deg
Eccentricity:    0.0012804
Arg of perigee:   314.2253 deg
Mean anomaly:     045.7784 deg
Mean motion:   13.17023623 rev/day
Decay rate:        5.1e-07 rev/day^2
Epoch rev:           92669
Checksum:              306

